User: anonymous   Login
Location: Caltech
(34.1382°N, 118.1253°W)
Time: 02:28:39
(UTC-07:00)
Language:

Cosmos 1508 Rocket - Orbit

View from above orbital plane
View from above orbital plane
View from above satellite
View from above satellite

Ground track
Ground track

The orbit data is extracted from the following two-line orbital elements,

1 14484U 83111B   14298.22106194  .00069530  00000-0  87670-3 0  6771
2 14484 082.8386 202.6339 0185969 164.5547 355.6307 15.41384119592511
Epoch (UTC): 25 October 2014 05:18:19
Eccentricity: 0.0185969
inclination: 82.8386°
perigee height: 315 km
apogee height: 569 km
right ascension of ascending node: 202.6339°
argument of perigee: 164.5547°
revolutions per day: 15.41384119
mean anomaly at epoch: 355.6307°
orbit number at epoch: 59251

The dashed part of the orbit path shows where the satellite is in the earth's shadow,  

DLR